BEIDOU-2 IGSO-7

Last updated on Mon Sep 21 2026 00:03:01 GMT+0000 (Coordinated Universal Time)

1 43539U 18057A 26262.67380615 -.00000165 00000+0 00000+0 0 9990 2 43539 55.2127 162.2531 0107678 236.4201 315.0789 1.00275683 30070
UTC large
Height (km)
Speed (km/s)
/
Latitude / Longitude
Inclination (degrees)
Orbital Period (minutes)
Azimuth
Elevation
Range (km)
Doppler Factor

Next 0 passes for location: London (51.5072 / 0.1276)

No passes found over London.
BEIDOU-2 IGSO-7